weather.gov     
National Weather Service

Regional Weather Roundup
NWS Homepage
This page is being discontinued on March 12, 2014.
The same data is available at this site. Please update your bookmarks.
Thank you, and we apologize for the inconvenience.
Please send an email to SR-SRH.Webmaster@noaa.gov with any concerns.


Current Version
Previous Version:    01  02  03  04  05  06  07  08  09  10  11  12  13  14  15  16  17  18  19  20  21  22  23  24  25  26  27  28  29  30  
   31  32  33  34  35  36  37  38  39  40  41  42  43  44  45  46  47  48  49  50  51  52  53  
[Printable]
909
ASUS43 KIWX 211810
RWRIWX

KIWX WEATHER ROUNDUP
NATIONAL WEATHER SERVICE NORTHERN INDIANA
200 PM EDT TUE OCT 21 2014

NOTE: "FAIR" INDICATES FEW OR NO CLOUDS BELOW 12,000 FEET WITH NO
SIGNIFICANT WEATHER AND/OR OBSTRUCTIONS TO VISIBILITY.

* THESE STATIONS ARE NOT UNDER NWS QUALITY CONTROL. THEY ALSO MAY NOT
  REPORT WEATHER SUCH AS PRECIPITATION OR FOG.

INZ001>027-211900-
NORTHERN INDIANA

CITY           SKY/WX    TMP DP  RH WIND       PRES   REMARKS
GARY*          CLOUDY    52  45  76 N12G23    30.16S
VALPARAISO     CLOUDY    52  44  74 N9        30.14R
6HR MIN TEMP:  47; 6HR MAX TEMP:  54; 6HR PCP: TRACE;

MICHIGAN CITY* CLOUDY    52  41  66 N18G25    30.14R
LAPORTE*       CLOUDY    52  47  85 N12G17    30.14R
6HR MIN TEMP:  48; 6HR MAX TEMP:  52; 6HR PCP:  0.04;

KNOX*          CLOUDY    51  44  77 N12       30.12R
6HR MIN TEMP:  32; 6HR MAX TEMP:  81;

SOUTH BEND     CLOUDY    53  41  63 N15G21    30.13S
6HR MIN TEMP:  47; 6HR MAX TEMP:  55; 6HR PCP: TRACE;

ELKHART*       CLOUDY    50  41  71 N7        30.12S
GOSHEN         CLOUDY    50  43  77 NE12      30.11R
6HR MIN TEMP:  46; 6HR MAX TEMP:  52; 6HR PCP: TRACE;

MONTICELLO*    DRIZZLE   52  46  80 N8G23     30.11S
6HR MIN TEMP:  47; 6HR MAX TEMP:  57; 6HR PCP:  0.01;

LOGANSPORT*    CLOUDY    54  43  66 NW7       30.11S
ROCHESTER*     CLOUDY    55  43  62 NE9       30.10S
WARSAW*        CLOUDY    50  43  76 N9        30.10S
ANGOLA*        CLOUDY    48  34  57 N8        30.09S
FORT WAYNE     CLOUDY    50  43  77 N15       30.09S
6HR MIN TEMP:  47; 6HR MAX TEMP:  51;

HUNTINGTON*    CLOUDY    51  43  74 N9        30.09R
6HR MIN TEMP:  44; 6HR MAX TEMP:  51;

PERU/GRISSOM   CLOUDY    54  46  76 N13       30.09S
6HR MIN TEMP:  48; 6HR MAX TEMP:  55;

MARION*        CLOUDY    53  40  62 N12       30.09S
6HR MIN TEMP:  33; 6HR MAX TEMP:  90;


$$
INZ028>050-211900-
CENTRAL INDIANA

CITY           SKY/WX    TMP DP  RH WIND       PRES   REMARKS
LAFAYETTE      CLOUDY    54  41  61 N10       30.11F
6HR MIN TEMP:  47; 6HR MAX TEMP:  56; 6HR PCP: TRACE;

KOKOMO*        CLOUDY    54  43  66 N15       30.09S
6HR MIN TEMP:  48; 6HR MAX TEMP:  55;

MUNCIE*        CLOUDY    53  42  66 N14       30.07S
6HR MIN TEMP:  48; 6HR MAX TEMP:  53;

INDIANAPOLIS   PTSUNNY   54  41  61 N9        30.08F
6HR MIN TEMP:  47; 6HR MAX TEMP:  56; 6HR PCP:  0.02;


$$
MIZ043>046-050>051-056>058-064>065-071>073-077>080-211900-
SOUTHWEST LOWER MICHIGAN

CITY           SKY/WX    TMP DP  RH WIND       PRES   REMARKS
BATTLE CREEK   CLOUDY    49  37  63 N14       30.12R
6HR MIN TEMP:  46; 6HR MAX TEMP:  49; 6HR PCP:  0.01;

BENTON HARBOR  CLOUDY    49  41  74 VRB5      30.13S
6HR MIN TEMP:  47; 6HR MAX TEMP:  53; 6HR PCP:  0.08;

COLDWATER*     CLOUDY    50  40  70 N13       30.10R
6HR MIN TEMP:  46; 6HR MAX TEMP:  51;

HILLSDALE*     CLOUDY    49  40  71 N12       30.08R
HOLLAND        CLOUDY    50  39  66 N6        30.15S
6HR MIN TEMP:  49; 6HR MAX TEMP:  52;

GRAND RAPIDS   CLOUDY    48  38  68 N10       30.14R
6HR MIN TEMP:  47; 6HR MAX TEMP:  49; 6HR PCP: TRACE;

KALAMAZOO      CLOUDY    48  41  76 N9        30.13R
6HR MIN TEMP:  46; 6HR MAX TEMP:  50; 6HR PCP:  0.01;

STURGIS*       CLOUDY    48  43  81 N13       30.10S
THREE RIVERS*  CLOUDY    49  43  79 NE7       30.12R
6HR MIN TEMP:  47; 6HR MAX TEMP:  50;


$$
OHZ001>008-015>018-024>025-211900-
NORTHWEST OHIO

CITY           SKY/WX    TMP DP  RH WIND       PRES   REMARKS
WAUSEON*       CLOUDY    50  39  66 N10G17    30.07R
DEFIANCE       CLOUDY    51  41  68 N9G18     30.07R
6HR MIN TEMP:  47; 6HR MAX TEMP:  54; 6HR PCP: TRACE;

FINDLAY        CLOUDY    51  42  71 N13G22    30.03R
6HR MIN TEMP:  48; 6HR MAX TEMP:  52; 6HR PCP: TRACE;

TOLEDO EXPRESS CLOUDY    48  39  71 N17G25    30.06R
6HR MIN TEMP:  47; 6HR MAX TEMP:  50; 6HR PCP: TRACE;

TOLEDO METCALF CLOUDY    49  39  68 N10       30.06R
6HR MIN TEMP:  49; 6HR MAX TEMP:  51; 6HR PCP: TRACE;

LIMA           CLOUDY    52  42  69 N12G20    30.03S
6HR MIN TEMP:  48; 6HR MAX TEMP:  52; 6HR PCP: TRACE;


$$
AND FOR LAKE MICHIGAN COASTAL AND OPEN LAKE BUOY OBSERVATIONS

STATION/POSITION TEMP    WIND        PRES    VSBY  WAVE
                 AIR SEA DIR/SP/G                  HT/PER
                 (F)     (DEG/KT/KT) (MB)    (MI)  (FT/S)
CALUMET HARBOR    50     340/ 11/ 21 1020.3
MICHIGAN CITY     51     360/ 22/ 25   N/A
SAINT JOSEPH      51                 1020.7R
SOUTH LAKE BUOY   49 54  360/ 16/ 19 1021.5R         6/ 7

$$
&&




U.S. Dept. of Commerce
NOAA National Weather Service
1325 East West Highway
Silver Spring, MD 20910
E-mail: w-nws.webmaster@noaa.gov
Page last modified: May 16, 2007
NATIONAL WEATHER SERVICE: for Safety, for Work, for Fun - FOR LIFE